Location: Eimen
(51.8766°N, 9.7806°E)
Time: 17:48:14
(UTC+00:00)

CZ-2D R/B - Pass Details

Date: 23 May 2024
Orbit: 790 x 843 km, 98.8° (Epoch: 24 June)

Event Time Altitude Azimuth Distance (km) Brightness Sun altitude
Rises 00:09:45 0° 25° (NNE) 3,414 7.0 -16.6°
Reaches altitude 10° 00:12:45 10° 41° (NE) 2,471 5.6 -16.5°
Maximum altitude 00:16:49 21° 89° (E) 1,810 4.1 -16.3°
Drops below altitude 10° 00:20:50 10° 137° (SE) 2,443 4.3 -16.2°
Enters shadow 00:21:27 - 142° (SE) 2,617 4.4 -16.2°
